QPF
0.02 0.02 0.03 0.01 0.01 0.02 0.02 0.03 0.03 0.03 0.03 0.02 0.02 0.02 0.01 0.00 0.00 0.00 0.00 0.00 0.00 0.00 0.01 0.01 0.01 0.01 0.01 0.02 0.01 0.02 0.03 0.02 0.02 0.01 0.01 0.01 0.02 0.02
0.01 0.02 0.03 0.02 0.01 0.02 0.02 0.02 0.03 0.02 0.02 0.02 0.02 0.02 0.01 0.00 0.00 0.00 0.00 0.00 0.00 0.00 0.01 0.01 0.01 0.00 0.00 0.01 0.01 0.00 0.01 0.01 0.01 0.00 0.01 0.01 0.01 0.01
0.01 0.03 0.04 0.01 0.02 0.02 0.02 0.03 0.03 0.02 0.02 0.01 0.01 0.01 0.00 0.00 0.00 0.00 0.00 0.00 0.00 0.00 0.01 0.01 0.02 0.01 0.00 0.01 0.01 0.00 0.00 0.00 0.00 0.00 0.00 0.00 0.01 0.01
0.01 0.02 0.02 0.01 0.02 0.02 0.03 0.04 0.03 0.02 0.01 0.01 0.01 0.00 0.00 0.00 0.00 0.00 0.00 0.00 0.00 0.01 0.01 0.01 0.02 0.01 0.00 0.00 0.01 0.00 0.00 0.00 0.00 0.00 0.00 0.00 0.00 0.00
0.01 0.01 0.01 0.02 0.04 0.03 0.03 0.03 0.02 0.02 0.02 0.01 0.01 0.00 0.00 0.00 0.00 0.00 0.00 0.00 0.00 0.00 0.00 0.01 0.01 0.00 0.00 0.00 0.00 0.00 0.00 0.00 0.00 0.00 0.00 0.00 0.00 0.00
0.01 0.01 0.01 0.02 0.03 0.04 0.02 0.01 0.01 0.01 0.02 0.01 0.01 0.01 0.00 0.00 0.01 0.01 0.01 0.00 0.00 0.00 0.00 0.00 0.01 0.01 0.00 0.00 0.00 0.00 0.00 0.00 0.00 0.00 0.00 0.00 0.00 0.00
0.01 0.01 0.00 0.01 0.01 0.02 0.01 0.02 0.02 0.01 0.01 0.01 0.01 0.01 0.01 0.00 0.01 0.01 0.01 0.01 0.00 0.00 0.00 0.00 0.00 0.00 0.00 0.00 0.00 0.00 0.00 0.00 0.00 0.00 0.00 0.00 0.00 0.00
0.02 0.00 0.00 0.01 0.00 0.00 0.00 0.01 0.01 0.01 0.01 0.01 0.01 0.01 0.01 0.01 0.01 0.01 0.01 0.01 0.01 0.01 0.00 0.00 0.00 0.00 0.00 0.00 0.00 0.00 0.00 0.00 0.00 0.00 0.00 0.00 0.00 0.00
0.02 0.01 0.01 0.01 0.00 0.00 0.00 0.00 0.00 0.00 0.00 0.01 0.02 0.02 0.02 0.02 0.02 0.02 0.02 0.02 0.01 0.01 0.01 0.01 0.00 0.00 0.00 0.00 0.00 0.00 0.00 0.00 0.00 0.00 0.00 0.00 0.00 0.00
0.02 0.02 0.01 0.01 0.01 0.00 0.00 0.00 0.00 0.00 0.00 0.00 0.01 0.01 0.01 0.02 0.01 0.01 0.02 0.03 0.02 0.01 0.01 0.01 0.01 0.00 0.00 0.00 0.00 0.00 0.00 0.00 0.00 0.00 0.00 0.00 0.00 0.00
0.01 0.02 0.01 0.00 0.00 0.00 0.00 0.00 0.00 0.01 0.00 0.00 0.00 0.01 0.01 0.01 0.00 0.00 0.01 0.02 0.02 0.02 0.01 0.01 0.01 0.01 0.00 0.01 0.00 0.00 0.00 0.00 0.00 0.00 0.00 0.00 0.00 0.00
0.01 0.01 0.01 0.01 0.00 0.00 0.00 0.00 0.01 0.01 0.00 0.00 0.00 0.00 0.01 0.01 0.01 0.00 0.01 0.01 0.02 0.01 0.01 0.01 0.01 0.00 0.00 0.00 0.00 0.00 0.00 0.00 0.00 0.00 0.00 0.00 0.00 0.00
0.01 0.01 0.01 0.00 0.00 0.00 0.00 0.00 0.00 0.01 0.00 0.00 0.00 0.00 0.00 0.01 0.00 0.00 0.00 0.01 0.02 0.01 0.01 0.01 0.01 0.01 0.00 0.00 0.00 0.00 0.00 0.00 0.00 0.00 0.00 0.00 0.00 0.00
0.01 0.01 0.01 0.01 0.00 0.00 0.00 0.00 0.00 0.01 0.00 0.00 0.00 0.00 0.00 0.00 0.00 0.00 0.00 0.00 0.00 0.00 0.00 0.00 0.01 0.01 0.00 0.00 0.00 0.00 0.00 0.00 0.00 0.00 0.00 0.00 0.00 0.00
0.01 0.01 0.01 0.01 0.00 0.00 0.00 0.00 0.00 0.00 0.00 0.00 0.01 0.01 0.01 0.01 0.01 0.01 0.01 0.01 0.01 0.00 0.00 0.01 0.00 0.00 0.01 0.01 0.00 0.00 0.00 0.00 0.00 0.00 0.00 0.00 0.00 0.00
0.01 0.01 0.01 0.00 0.00 0.00 0.00 0.00 0.00 0.00 0.01 0.01 0.02 0.01 0.01 0.01 0.01 0.01 0.01 0.01 0.01 0.01 0.00 0.01 0.01 0.01 0.01 0.01 0.00 0.00 0.00 0.00 0.00 0.00 0.00 0.00 0.00 0.00
0.01 0.01 0.00 0.00 0.00 0.00 0.00 0.00 0.00 0.00 0.00 0.01 0.01 0.00 0.00 0.00 0.01 0.01 0.01 0.01 0.01 0.01 0.01 0.01 0.01 0.01 0.01 0.01 0.01 0.00 0.00 0.00 0.00 0.00 0.00 0.00 0.00 0.00
0.01 0.00 0.00 0.00 0.00 0.00 0.00 0.00 0.01 0.01 0.00 0.01 0.01 0.00 0.00 0.01 0.01 0.01 0.01 0.01 0.01 0.01 0.01 0.01 0.00 0.00 0.00 0.00 0.00 0.00 0.00 0.00 0.00 0.00 0.00 0.00 0.00 0.00
0.00 0.00 0.00 0.01 0.01 0.00 0.01 0.01 0.01 0.01 0.01 0.01 0.01 0.01 0.01 0.01 0.01 0.01 0.01 0.01 0.00 0.01 0.01 0.00 0.00 0.00 0.00 0.00 0.00 0.00 0.00 0.00 0.00 0.00 0.00 0.00 0.00 0.00
0.01 0.01 0.01 0.01 0.01 0.02 0.02 0.02 0.02 0.03 0.02 0.01 0.01 0.01 0.01 0.01 0.01 0.01 0.01 0.00 0.00 0.00 0.00 0.00 0.00 0.01 0.01 0.01 0.02 0.01 0.01 0.01 0.01 0.01 0.01 0.01 0.01 0.01
0.01 0.02 0.02 0.03 0.02 0.02 0.02 0.02 0.02 0.03 0.04 0.03 0.02 0.02 0.02 0.01 0.01 0.01 0.01 0.01 0.01 0.01 0.01 0.00 0.01 0.02 0.02 0.02 0.02 0.01 0.01 0.01 0.01 0.01 0.01 0.01 0.00 0.00
0.01 0.01 0.02 0.02 0.02 0.02 0.03 0.03 0.03 0.04 0.04 0.04 0.04 0.05 0.04 0.04 0.03 0.03 0.02 0.02 0.01 0.01 0.02 0.02 0.02 0.02 0.02 0.01 0.01 0.01 0.00 0.00 0.01 0.01 0.01 0.01 0.01 0.01
0.02 0.02 0.02 0.02 0.02 0.02 0.02 0.02 0.02 0.02 0.03 0.04 0.05 0.05 0.05 0.04 0.04 0.03 0.02 0.02 0.02 0.02 0.02 0.02 0.02 0.02 0.02 0.01 0.01 0.01 0.01 0.01 0.01 0.01 0.01 0.02 0.02 0.01
MSLP
1017.57 1017.72 1017.94 1018.21 1018.53 1018.88 1019.24 1019.59 1019.92 1020.25 1020.56 1020.87 1021.17 1021.47 1021.76 1022.03 1022.27 1022.46 1022.59 1022.65 1022.63 1022.54 1022.37 1022.15 1021.88 1021.59 1021.28 1020.96 1020.64 1020.31 1019.97 1019.61 1019.23 1018.82 1018.37 1017.87 1017.35 1016.79
1017.80 1017.90 1018.05 1018.26 1018.51 1018.79 1019.09 1019.41 1019.73 1020.06 1020.39 1020.74 1021.09 1021.46 1021.82 1022.17 1022.49 1022.77 1022.98 1023.12 1023.18 1023.16 1023.07 1022.91 1022.69 1022.44 1022.16 1021.86 1021.55 1021.24 1020.91 1020.57 1020.21 1019.83 1019.43 1019.00 1018.55 1018.07
1018.14 1018.20 1018.29 1018.43 1018.60 1018.82 1019.07 1019.34 1019.63 1019.95 1020.29 1020.65 1021.03 1021.44 1021.85 1022.26 1022.64 1022.99 1023.28 1023.51 1023.65 1023.72 1023.70 1023.61 1023.47 1023.27 1023.03 1022.76 1022.47 1022.17 1021.85 1021.52 1021.18 1020.82 1020.46 1020.07 1019.68 1019.28
1018.54 1018.56 1018.61 1018.69 1018.81 1018.97 1019.16 1019.39 1019.66 1019.95 1020.28 1020.63 1021.02 1021.44 1021.87 1022.30 1022.72 1023.12 1023.48 1023.78 1024.00 1024.16 1024.24 1024.24 1024.17 1024.04 1023.86 1023.63 1023.37 1023.08 1022.78 1022.46 1022.12 1021.78 1021.44 1021.09 1020.74 1020.40
1018.92 1018.93 1018.95 1019.00 1019.08 1019.20 1019.36 1019.56 1019.79 1020.06 1020.36 1020.69 1021.06 1021.45 1021.87 1022.29 1022.73 1023.15 1023.55 1023.91 1024.22 1024.46 1024.64 1024.74 1024.77 1024.73 1024.62 1024.45 1024.23 1023.96 1023.67 1023.36 1023.03 1022.70 1022.36 1022.04 1021.72 1021.42
1019.25 1019.25 1019.26 1019.29 1019.36 1019.47 1019.61 1019.79 1020.00 1020.23 1020.50 1020.79 1021.11 1021.46 1021.83 1022.22 1022.63 1023.05 1023.47 1023.88 1024.26 1024.60 1024.88 1025.09 1025.23 1025.29 1025.26 1025.17 1025.00 1024.77 1024.50 1024.20 1023.88 1023.55 1023.22 1022.91 1022.61 1022.33
1019.46 1019.46 1019.47 1019.51 1019.58 1019.69 1019.84 1020.01 1020.21 1020.42 1020.65 1020.90 1021.16 1021.43 1021.74 1022.07 1022.44 1022.84 1023.26 1023.69 1024.13 1024.55 1024.93 1025.25 1025.50 1025.67 1025.75 1025.74 1025.65 1025.47 1025.24 1024.96 1024.65 1024.33 1024.01 1023.70 1023.41 1023.14
1019.53 1019.53 1019.56 1019.61 1019.70 1019.83 1019.99 1020.18 1020.37 1020.57 1020.76 1020.96 1021.15 1021.36 1021.59 1021.85 1022.15 1022.51 1022.91 1023.35 1023.83 1024.31 1024.78 1025.21 1025.58 1025.86 1026.05 1026.14 1026.12 1026.02 1025.83 1025.59 1025.31 1025.01 1024.70 1024.40 1024.12 1023.86
1019.49 1019.49 1019.52 1019.60 1019.71 1019.87 1020.05 1020.25 1020.45 1020.63 1020.80 1020.95 1021.08 1021.21 1021.36 1021.55 1021.79 1022.09 1022.46 1022.89 1023.39 1023.92 1024.45 1024.97 1025.43 1025.82 1026.12 1026.31 1026.39 1026.36 1026.25 1026.07 1025.83 1025.56 1025.28 1025.00 1024.74 1024.50
1019.35 1019.35 1019.39 1019.48 1019.63 1019.80 1020.01 1020.22 1020.42 1020.60 1020.74 1020.85 1020.94 1021.01 1021.10 1021.21 1021.38 1021.63 1021.95 1022.37 1022.85 1023.40 1023.97 1024.55 1025.08 1025.56 1025.95 1026.24 1026.41 1026.48 1026.46 1026.35 1026.18 1025.97 1025.74 1025.50 1025.27 1025.05
1019.17 1019.16 1019.22 1019.32 1019.47 1019.67 1019.88 1020.09 1020.29 1020.46 1020.59 1020.68 1020.73 1020.76 1020.80 1020.87 1020.98 1021.17 1021.45 1021.82 1022.29 1022.82 1023.40 1023.99 1024.57 1025.10 1025.56 1025.93 1026.20 1026.37 1026.44 1026.42 1026.34 1026.22 1026.06 1025.88 1025.70 1025.52
1018.98 1018.98 1019.03 1019.14 1019.29 1019.47 1019.68 1019.88 1020.07 1020.23 1020.35 1020.43 1020.47 1020.48 1020.50 1020.53 1020.62 1020.76 1021.00 1021.32 1021.74 1022.23 1022.78 1023.36 1023.95 1024.50 1025.00 1025.43 1025.78 1026.03 1026.21 1026.30 1026.32 1026.30 1026.23 1026.14 1026.03 1025.92
1018.79 1018.80 1018.85 1018.94 1019.07 1019.23 1019.41 1019.59 1019.75 1019.90 1020.01 1020.09 1020.13 1020.16 1020.18 1020.21 1020.29 1020.41 1020.61 1020.89 1021.26 1021.69 1022.19 1022.73 1023.28 1023.82 1024.34 1024.80 1025.20 1025.54 1025.80 1026.00 1026.14 1026.23 1026.27 1026.28 1026.27 1026.23
1018.61 1018.62 1018.65 1018.72 1018.81 1018.92 1019.05 1019.18 1019.31 1019.44 1019.55 1019.63 1019.71 1019.76 1019.82 1019.88 1019.97 1020.11 1020.29 1020.53 1020.85 1021.22 1021.65 1022.12 1022.62 1023.13 1023.63 1024.10 1024.54 1024.94 1025.28 1025.58 1025.83 1026.03 1026.19 1026.31 1026.39 1026.45
1018.39 1018.40 1018.41 1018.43 1018.46 1018.51 1018.57 1018.64 1018.73 1018.82 1018.93 1019.03 1019.15 1019.25 1019.37 1019.49 1019.63 1019.79 1019.98 1020.21 1020.48 1020.80 1021.17 1021.57 1022.01 1022.47 1022.93 1023.40 1023.86 1024.30 1024.71 1025.10 1025.44 1025.75 1026.02 1026.25 1026.43 1026.57
1018.11 1018.11 1018.08 1018.04 1018.00 1017.96 1017.94 1017.94 1017.97 1018.03 1018.13 1018.26 1018.41 1018.59 1018.78 1018.97 1019.18 1019.39 1019.61 1019.85 1020.11 1020.40 1020.72 1021.07 1021.45 1021.86 1022.29 1022.74 1023.21 1023.68 1024.14 1024.59 1025.02 1025.42 1025.79 1026.10 1026.37 1026.59
1017.76 1017.72 1017.64 1017.53 1017.40 1017.27 1017.16 1017.08 1017.05 1017.07 1017.16 1017.30 1017.50 1017.73 1017.99 1018.27 1018.55 1018.83 1019.11 1019.38 1019.66 1019.94 1020.24 1020.55 1020.90 1021.28 1021.69 1022.14 1022.61 1023.10 1023.60 1024.11 1024.60 1025.07 1025.50 1025.89 1026.23 1026.52
1017.35 1017.26 1017.11 1016.91 1016.70 1016.47 1016.27 1016.10 1016.01 1015.99 1016.05 1016.19 1016.41 1016.69 1017.01 1017.35 1017.70 1018.05 1018.39 1018.71 1019.02 1019.32 1019.63 1019.96 1020.31 1020.68 1021.10 1021.55 1022.03 1022.55 1023.08 1023.63 1024.16 1024.68 1025.17 1025.62 1026.01 1026.34
1016.91 1016.75 1016.53 1016.26 1015.95 1015.64 1015.34 1015.10 1014.93 1014.86 1014.88 1015.00 1015.21 1015.50 1015.85 1016.23 1016.63 1017.03 1017.41 1017.78 1018.14 1018.49 1018.84 1019.20 1019.58 1019.99 1020.43 1020.91 1021.43 1021.97 1022.54 1023.12 1023.69 1024.25 1024.78 1025.26 1025.68 1026.05
1016.51 1016.28 1015.99 1015.64 1015.25 1014.86 1014.49 1014.18 1013.94 1013.79 1013.76 1013.83 1014.00 1014.26 1014.58 1014.96 1015.36 1015.77 1016.19 1016.59 1016.99 1017.39 1017.79 1018.21 1018.65 1019.12 1019.62 1020.15 1020.72 1021.31 1021.91 1022.53 1023.13 1023.72 1024.27 1024.78 1025.23 1025.62
1016.18 1015.89 1015.53 1015.12 1014.68 1014.23 1013.81 1013.43 1013.12 1012.90 1012.79 1012.78 1012.87 1013.05 1013.30 1013.61 1013.97 1014.35 1014.75 1015.17 1015.59 1016.03 1016.49 1016.98 1017.49 1018.03 1018.60 1019.21 1019.83 1020.48 1021.13 1021.78 1022.42 1023.03 1023.61 1024.14 1024.61 1025.03
1015.96 1015.62 1015.22 1014.77 1014.30 1013.81 1013.35 1012.91 1012.55 1012.25 1012.04 1011.93 1011.90 1011.96 1012.09 1012.30 1012.55 1012.86 1013.20 1013.59 1014.01 1014.47 1014.98 1015.52 1016.10 1016.72 1017.37 1018.05 1018.75 1019.45 1020.15 1020.84 1021.51 1022.15 1022.75 1023.31 1023.82 1024.26
1015.85 1015.47 1015.04 1014.58 1014.10 1013.60 1013.12 1012.66 1012.23 1011.87 1011.56 1011.32 1011.15 1011.06 1011.04 1011.09 1011.21 1011.39 1011.64 1011.96 1012.35 1012.81 1013.33 1013.92 1014.56 1015.25 1015.97 1016.72 1017.48 1018.24 1018.98 1019.71 1020.41 1021.08 1021.71 1022.29 1022.83 1023.32
Thickness
5692 5691 5690 5689 5689 5689 5687 5683 5676 5667 5663 5666 5666 5666 5665 5663 5661 5659 5657 5656 5655 5653 5652 5651 5650 5650 5649 5649 5648 5648 5647 5647 5647 5647 5647 5647 5647 5647
5690 5689 5687 5687 5686 5686 5685 5683 5681 5674 5665 5664 5664 5664 5663 5661 5658 5656 5654 5652 5650 5649 5647 5645 5645 5644 5643 5642 5641 5641 5640 5640 5639 5639 5639 5638 5638 5638
5688 5687 5685 5685 5683 5683 5682 5680 5677 5674 5665 5662 5663 5662 5660 5658 5655 5654 5651 5649 5646 5645 5642 5641 5639 5638 5637 5636 5635 5634 5633 5632 5632 5631 5631 5630 5630 5629
5686 5685 5683 5683 5681 5680 5678 5676 5673 5671 5666 5659 5658 5658 5656 5655 5654 5652 5649 5646 5643 5641 5639 5637 5635 5633 5631 5630 5629 5627 5626 5625 5624 5624 5623 5622 5621 5620
5684 5682 5681 5680 5677 5676 5674 5672 5671 5670 5665 5660 5656 5655 5654 5653 5650 5649 5647 5644 5641 5638 5635 5633 5631 5628 5626 5624 5623 5621 5620 5618 5617 5616 5614 5613 5612 5611
5682 5680 5679 5677 5675 5673 5672 5670 5668 5665 5662 5657 5654 5651 5650 5649 5647 5643 5640 5639 5637 5635 5633 5629 5626 5623 5621 5619 5617 5615 5613 5611 5609 5608 5606 5605 5603 5602
5679 5677 5676 5674 5673 5672 5670 5666 5664 5661 5657 5654 5650 5647 5645 5643 5641 5640 5637 5635 5633 5632 5629 5626 5623 5619 5616 5613 5611 5609 5606 5604 5602 5600 5598 5596 5594 5593
5676 5674 5673 5671 5670 5668 5666 5664 5662 5658 5654 5651 5647 5643 5641 5641 5640 5638 5634 5631 5627 5627 5624 5621 5619 5615 5611 5609 5606 5604 5600 5597 5595 5592 5590 5588 5586 5584
5674 5672 5671 5669 5667 5664 5662 5660 5658 5656 5654 5650 5645 5642 5640 5639 5637 5634 5631 5628 5623 5623 5620 5615 5614 5610 5607 5604 5601 5598 5595 5591 5588 5585 5582 5580 5578 5576
5672 5670 5668 5665 5664 5662 5659 5655 5653 5651 5650 5648 5645 5642 5640 5638 5636 5633 5629 5625 5622 5619 5617 5610 5608 5605 5602 5598 5595 5592 5589 5585 5581 5578 5575 5572 5569 5567
5668 5667 5665 5663 5661 5659 5655 5651 5648 5646 5645 5644 5642 5639 5637 5634 5632 5628 5624 5619 5614 5612 5611 5605 5602 5599 5596 5593 5589 5586 5583 5579 5575 5571 5567 5564 5560 5557
5662 5662 5661 5659 5657 5655 5652 5649 5644 5642 5641 5639 5636 5634 5631 5629 5626 5623 5620 5615 5610 5606 5605 5601 5597 5593 5588 5587 5584 5580 5576 5572 5568 5563 5559 5555 5551 5547
5658 5656 5655 5654 5653 5651 5649 5646 5643 5641 5638 5635 5631 5629 5626 5624 5621 5618 5616 5612 5606 5601 5600 5597 5591 5587 5582 5579 5576 5573 5569 5565 5560 5555 5551 5547 5542 5538
5654 5652 5650 5649 5648 5646 5644 5642 5640 5638 5634 5630 5626 5623 5620 5617 5615 5613 5610 5607 5603 5598 5595 5592 5586 5581 5576 5571 5567 5565 5561 5557 5552 5547 5543 5538 5533 5529
5650 5648 5646 5644 5642 5640 5638 5637 5635 5632 5628 5624 5621 5618 5616 5613 5610 5606 5603 5600 5596 5592 5589 5585 5581 5576 5571 5565 5560 5556 5552 5549 5545 5540 5535 5530 5525 5520
5643 5641 5640 5638 5636 5634 5633 5631 5628 5626 5623 5620 5617 5614 5611 5608 5604 5600 5596 5592 5587 5583 5582 5579 5575 5571 5565 5560 5554 5549 5544 5540 5537 5532 5527 5521 5516 5511
5638 5636 5633 5631 5629 5627 5626 5625 5623 5621 5618 5616 5613 5609 5605 5602 5598 5595 5590 5586 5580 5576 5572 5570 5567 5563 5559 5554 5547 5542 5537 5532 5528 5524 5518 5512 5507 5503
5635 5632 5630 5627 5625 5623 5621 5619 5618 5616 5614 5612 5608 5604 5601 5597 5592 5589 5585 5580 5575 5571 5566 5562 5558 5554 5549 5545 5540 5535 5530 5525 5520 5516 5510 5503 5498 5494
5631 5628 5626 5624 5622 5620 5618 5616 5614 5612 5610 5607 5603 5599 5596 5592 5587 5583 5578 5574 5569 5565 5560 5556 5550 5545 5538 5534 5532 5528 5522 5517 5512 5507 5501 5495 5490 5486
5626 5624 5622 5620 5618 5617 5614 5612 5610 5607 5604 5601 5597 5594 5590 5586 5582 5577 5572 5568 5563 5558 5553 5549 5543 5539 5533 5528 5523 5519 5515 5510 5504 5499 5493 5488 5483 5478
5620 5619 5618 5616 5614 5612 5610 5607 5604 5601 5598 5595 5591 5588 5584 5580 5575 5571 5566 5562 5556 5551 5545 5541 5537 5533 5528 5521 5515 5511 5507 5502 5497 5491 5486 5479 5474 5468
5616 5614 5612 5610 5608 5606 5603 5600 5597 5594 5591 5588 5584 5581 5577 5573 5568 5564 5559 5553 5548 5543 5538 5533 5530 5524 5519 5513 5507 5503 5498 5493 5488 5483 5477 5472 5464 5458
5611 5608 5606 5604 5601 5599 5596 5593 5590 5587 5584 5580 5577 5573 5570 5565 5561 5556 5551 5546 5540 5535 5529 5524 5519 5515 5510 5505 5499 5494 5489 5484 5478 5473 5468 5463 5457 5451